Change the Weather History Date:

Monday, November 11, 2013

  Actual Average (KFWA) Record (KFWA)
Temperature  
Mean Temperature 38 °F 44 °F  
Max Temperature 46 °F 53 °F 74 °F (1927)
Min Temperature 30 °F 35 °F 17 °F (1950)
Degree Days  
Heating Degree Days 27 21  
Month to date heating degree days 214  
Since 1 July heating degree days 723  
Cooling Degree Days 0 0  
Month to date cooling degree days 0  
Year to date cooling degree days 809  
Moisture  
Dew Point 31 °F    
Average Humidity 75    
Maximum Humidity 100    
Minimum Humidity 57    
Precipitation  
Precipitation 0.06 in 0.09 in 0.96 in (1984)
Month to date precipitation 1.05  
Year to date precipitation 33.53  
Snow  
Snow 0.00 in 0.00 in 2.00 in (1921)
Month to date snowfall 0.3  
Since 1 July snowfall 0.6  
Since 1 September snowfall 0.6  
Snow Depth -    
Sea Level Pressure  
Sea Level Pressure 30.17 in    
Wind  
Wind Speed 7 mph (West)    
Max Wind Speed 17 mph    
Max Gust Speed 25 mph    
Visibility 9 miles    
Events Rain , Snow    
T = Trace of Precipitation, MM = Missing Value Source: NWS Daily Summary

Daily Weather History Graph

Daily Weather History Graph

Search for Another Location

Airport or City:

Trip Planner

Search our weather history database for the weather conditions in past years. The results will help you decide how hot, cold, wet, or windy it might be!

Date:

Astronomy

Nov. 11, 2013 Rise Set
Actual Time 7:23 AM EST 5:24 PM EST
Civil Twilight 6:54 AM EST 5:53 PM EST
Nautical Twilight 6:21 AM EST 6:26 PM EST
Astronomical Twilight 5:48 AM EST 6:59 PM EST
Moon 2:08 PM EST (11/11) 1:04 AM EST (11/11)
Length of Visible Light 10h 59m
Length of Day
10h 00m
Waxing Gibbous, 66% of the Moon is Illuminated
Nov 11
Waxing Gibbous
Nov 17
Full
Nov 25
Last Quarter
Dec 2
New
Dec 9
First Quarter

Hourly Weather History & Observations

Time (EST) Temp. Windchill Dew Point Humidity Pressure Visibility Wind Dir Wind Speed Gust Speed Precip Events Conditions
12:15 AM 35.6 °F 32.8 °F 30.2 °F 81% 30.26 in 10.0 mi SSW 3.5 mph - N/A   Clear
12:35 AM 35.6 °F 32.8 °F 30.2 °F 81% 30.25 in 10.0 mi SSW 3.5 mph - N/A   Mostly Cloudy
12:55 AM 35.6 °F 31.7 °F 30.2 °F 81% 30.26 in 10.0 mi SW 4.6 mph - N/A   Overcast
1:15 AM 37.4 °F 34.9 °F 30.2 °F 75% 30.25 in 10.0 mi SW 3.5 mph - N/A   Overcast
1:35 AM 35.6 °F 32.8 °F 30.2 °F 81% 30.25 in 10.0 mi SW 3.5 mph - N/A   Overcast
1:55 AM 35.6 °F 32.8 °F 30.2 °F 81% 30.24 in 10.0 mi SSW 3.5 mph - N/A   Overcast
2:15 AM 37.4 °F 33.8 °F 30.2 °F 75% 30.24 in 10.0 mi SW 4.6 mph - N/A   Overcast
2:35 AM 37.4 °F 32.8 °F 30.2 °F 75% 30.23 in 10.0 mi SSW 5.8 mph - N/A   Overcast
2:55 AM 37.4 °F 34.9 °F 30.2 °F 75% 30.22 in 10.0 mi SSW 3.5 mph - N/A   Overcast
3:15 AM 37.4 °F - 32.0 °F 81% 30.21 in 10.0 mi Calm Calm - N/A   Overcast
3:35 AM 37.4 °F 33.8 °F 32.0 °F 81% 30.20 in 10.0 mi SSW 4.6 mph - N/A   Overcast
3:55 AM 39.2 °F 37.0 °F 32.0 °F 75% 30.20 in 10.0 mi SW 3.5 mph - N/A   Overcast
4:15 AM 39.2 °F 35.9 °F 32.0 °F 75% 30.20 in 10.0 mi SW 4.6 mph - N/A   Overcast
4:35 AM 39.2 °F 34.2 °F 32.0 °F 75% 30.18 in 10.0 mi SSW 6.9 mph - N/A   Overcast
4:55 AM 39.2 °F 34.2 °F 32.0 °F 75% 30.17 in 10.0 mi SSW 6.9 mph - N/A   Overcast
5:15 AM 41.0 °F 36.4 °F 32.0 °F 70% 30.18 in 10.0 mi SW 6.9 mph - N/A   Overcast
5:35 AM 41.0 °F 37.1 °F 32.0 °F 70% 30.17 in 10.0 mi SW 5.8 mph - N/A   Overcast
5:55 AM 41.0 °F 36.4 °F 32.0 °F 70% 30.17 in 10.0 mi SW 6.9 mph - N/A   Overcast
6:15 AM 41.0 °F 36.4 °F 32.0 °F 70% 30.16 in 10.0 mi SSW 6.9 mph - N/A   Overcast
6:35 AM 41.0 °F 35.8 °F 32.0 °F 70% 30.15 in 10.0 mi SW 8.1 mph - N/A   Overcast
6:55 AM 41.0 °F 35.8 °F 32.0 °F 70% 30.15 in 10.0 mi SW 8.1 mph - N/A   Overcast
7:15 AM 41.0 °F 35.8 °F 32.0 °F 70% 30.15 in 10.0 mi SW 8.1 mph - N/A   Overcast
7:35 AM 41.0 °F 35.8 °F 32.0 °F 70% 30.14 in 10.0 mi SSW 8.1 mph 16.1 mph N/A   Overcast
7:55 AM 41.0 °F 35.8 °F 32.0 °F 70% 30.13 in 10.0 mi SSW 8.1 mph 18.4 mph N/A   Overcast
8:15 AM 42.8 °F 38.0 °F 32.0 °F 66% 30.12 in 10.0 mi SSW 8.1 mph - N/A   Overcast
8:35 AM 42.8 °F 37.0 °F 32.0 °F 66% 30.13 in 10.0 mi SW 10.4 mph 18.4 mph N/A   Overcast
8:55 AM 42.8 °F 37.0 °F 32.0 °F 66% 30.13 in 10.0 mi SW 10.4 mph 17.3 mph N/A   Overcast
9:15 AM 42.8 °F 38.0 °F 32.0 °F 66% 30.11 in 10.0 mi SSW 8.1 mph - N/A   Overcast
9:35 AM 44.6 °F 39.2 °F 32.0 °F 61% 30.11 in 10.0 mi SW 10.4 mph - N/A   Overcast
9:55 AM 44.6 °F 39.2 °F 32.0 °F 61% 30.11 in 10.0 mi SW 10.4 mph 19.6 mph N/A   Overcast
10:15 AM 44.6 °F 40.2 °F 32.0 °F 61% 30.11 in 10.0 mi SW 8.1 mph 20.7 mph N/A   Overcast
10:35 AM 44.6 °F 39.2 °F 32.0 °F 61% 30.11 in 10.0 mi SW 10.4 mph 20.7 mph N/A   Overcast
10:55 AM 44.6 °F 38.8 °F 32.0 °F 61% 30.11 in 10.0 mi WSW 11.5 mph 18.4 mph N/A   Overcast
11:15 AM 44.6 °F 39.2 °F 32.0 °F 61% 30.10 in 10.0 mi WSW 10.4 mph 18.4 mph N/A   Overcast
11:35 AM 46.4 °F 41.9 °F 32.0 °F 57% 30.10 in 10.0 mi WSW 9.2 mph - N/A   Overcast
11:55 AM 46.4 °F 42.9 °F 32.0 °F 57% 30.09 in 10.0 mi WSW 6.9 mph - N/A   Overcast
12:15 PM 46.4 °F 41.9 °F 32.0 °F 57% 30.09 in 10.0 mi WSW 9.2 mph - N/A   Overcast
12:35 PM 46.4 °F 42.4 °F 32.0 °F 57% 30.08 in 10.0 mi WSW 8.1 mph - N/A   Overcast
12:55 PM 46.4 °F 41.5 °F 32.0 °F 57% 30.07 in 10.0 mi West 10.4 mph - N/A   Overcast
1:15 PM 46.4 °F 41.5 °F 32.0 °F 57% 30.06 in 10.0 mi West 10.4 mph - N/A   Overcast
1:35 PM 46.4 °F 40.7 °F 32.0 °F 57% 30.06 in 10.0 mi West 12.7 mph 18.4 mph N/A   Overcast
1:55 PM 46.4 °F 41.1 °F 32.0 °F 57% 30.06 in 10.0 mi WNW 11.5 mph - N/A   Overcast
2:15 PM 46.4 °F 40.1 °F 32.0 °F 57% 30.06 in 10.0 mi WNW 15.0 mph 20.7 mph N/A   Drizzle
2:35 PM 44.6 °F 38.8 °F 35.6 °F 71% 30.06 in 7.0 mi WNW 11.5 mph - N/A Rain Rain
2:55 PM 42.8 °F 37.5 °F 35.6 °F 76% 30.06 in 10.0 mi West 9.2 mph - N/A   Light Drizzle
3:15 PM 42.8 °F 37.0 °F 37.4 °F 81% 30.08 in 5.0 mi NW 10.4 mph 17.3 mph N/A   Drizzle
3:35 PM 41.0 °F 34.7 °F 37.4 °F 87% 30.09 in 4.0 mi WNW 10.4 mph - N/A Rain Light Rain
3:55 PM 41.0 °F 36.4 °F 37.4 °F 87% 30.09 in 5.0 mi WNW 6.9 mph - N/A Rain Light Rain
4:15 PM 41.0 °F 35.8 °F 37.4 °F 87% 30.09 in 5.0 mi WNW 8.1 mph - 0.01 in Rain Rain
4:35 PM 41.0 °F 35.8 °F 37.4 °F 87% 30.10 in 7.0 mi WNW 8.1 mph - 0.01 in Rain Light Rain
4:55 PM 39.2 °F 32.5 °F 35.6 °F 87% 30.11 in 10.0 mi NW 10.4 mph - 0.02 in Rain Light Rain
5:15 PM 37.4 °F 29.3 °F 33.8 °F 87% 30.12 in 5.0 mi NW 12.7 mph 16.1 mph 0.01 in Rain Light Rain
5:35 PM 37.4 °F 29.8 °F 33.8 °F 87% 30.13 in 7.0 mi NW 11.5 mph - 0.02 in Rain Light Rain
5:55 PM 35.6 °F 28.6 °F 33.8 °F 93% 30.15 in 7.0 mi NNW 9.2 mph 18.4 mph 0.02 in Rain Light Rain
6:15 PM 35.6 °F 28.0 °F 32.0 °F 87% 30.17 in 5.0 mi NNW 10.4 mph - N/A Rain Light Rain
6:35 PM 33.8 °F 24.8 °F 32.0 °F 93% 30.17 in 5.0 mi NNW 12.7 mph - 0.01 in Rain Light Rain
6:55 PM 33.8 °F 28.6 °F 32.0 °F 93% 30.19 in 3.0 mi NNW 5.8 mph - 0.01 in Snow Light Snow
7:15 PM 32.0 °F 22.1 °F 32.0 °F 100% 30.20 in 2.0 mi North 13.8 mph 18.4 mph 0.01 in Snow Light Snow
7:35 PM 32.0 °F 25.6 °F 32.0 °F 100% 30.21 in 1.8 mi NNW 6.9 mph 12.7 mph 0.01 in Snow Light Snow
7:55 PM 32.0 °F 23.6 °F 30.2 °F 93% 30.23 in 2.0 mi NNW 10.4 mph 17.3 mph 0.01 in Snow Light Snow
8:15 PM 32.0 °F 23.0 °F 30.2 °F 93% 30.24 in 2.0 mi NNW 11.5 mph - N/A Snow Light Snow
8:35 PM 32.0 °F 23.6 °F 28.4 °F 87% 30.25 in 4.0 mi NNW 10.4 mph 20.7 mph N/A Snow Light Snow
8:55 PM 32.0 °F 20.8 °F 28.4 °F 87% 30.26 in 4.0 mi NNW 17.3 mph 25.3 mph N/A Snow Light Snow
9:15 PM 30.2 °F 21.3 °F 26.6 °F 86% 30.28 in 7.0 mi North 10.4 mph 23.0 mph N/A Snow Light Snow
9:35 PM 30.2 °F 21.3 °F 26.6 °F 86% 30.28 in 10.0 mi NNW 10.4 mph - N/A   Overcast
9:55 PM 30.2 °F 21.9 °F 24.8 °F 80% 30.29 in 10.0 mi North 9.2 mph - N/A   Overcast
10:15 PM 30.2 °F 19.3 °F 23.0 °F 75% 30.31 in 10.0 mi North 15.0 mph 20.7 mph N/A   Overcast
10:35 PM 30.2 °F 21.9 °F 23.0 °F 75% 30.32 in 10.0 mi NNW 9.2 mph 17.3 mph N/A   Mostly Cloudy
10:55 PM 30.2 °F 20.8 °F 21.2 °F 69% 30.32 in 10.0 mi North 11.5 mph 17.3 mph N/A   Scattered Clouds
11:15 PM 30.2 °F 21.3 °F 21.2 °F 69% 30.33 in 10.0 mi North 10.4 mph - N/A   Clear
11:35 PM 30.2 °F 21.9 °F 19.4 °F 64% 30.34 in 10.0 mi North 9.2 mph 17.3 mph N/A   Clear
11:55 PM 30.2 °F 22.6 °F 19.4 °F 64% 30.35 in 10.0 mi North 8.1 mph 16.1 mph N/A   Clear